Theta_e
284 284 284 285 284 282 281 281 281 282 281 282 280 279 279 278 273 275 279 279 279 280 281 283 284 285 286 288 289 290 292 292 294 294 294 294 294 294 294 294 294 294 294 294 295 296 297 297 297 298 298 299 301 303 305 308 309 309 309 310 309 309 309 309 309 310 311 312 312 311 311 311 310 311 311 311 311 311 311 311 311 311 311 311 312 312 311
284 284 285 287 285 283 282 282 281 280 281 280 281 280 278 279 279 279 280 280 279 281 282 283 285 286 288 289 291 292 292 291 292 293 293 293 293 292 292 292 292 293 292 292 293 294 293 294 295 296 296 296 296 301 304 305 307 306 309 308 308 307 307 307 307 308 308 309 309 310 310 310 310 310 310 309 310 309 310 311 311 309 310 310 311 311 311
282 284 285 286 285 284 283 283 283 282 282 282 280 280 280 281 280 279 281 280 279 283 284 284 286 286 288 290 290 290 291 292 293 292 292 292 292 293 293 293 293 293 293 293 292 292 292 292 293 293 294 294 295 296 298 302 305 306 308 307 307 308 308 306 306 306 307 306 307 308 309 308 308 308 309 309 309 309 309 309 309 309 309 309 309 309 310
278 282 282 283 284 284 283 282 283 282 281 280 280 278 281 278 279 279 280 278 275 283 283 284 284 285 286 286 288 290 290 292 292 292 291 292 292 292 293 293 293 293 293 293 293 293 293 293 293 293 293 293 294 294 294 295 297 302 304 305 304 305 305 304 305 306 305 306 307 307 307 308 308 309 308 308 308 308 307 308 308 308 307 308 308 307 308
275 280 281 282 282 282 280 279 281 282 281 282 281 282 283 281 281 279 277 278 279 281 286 282 283 284 284 284 285 287 289 290 291 291 291 292 292 292 293 294 293 292 293 293 293 294 295 295 295 294 293 294 294 294 294 294 294 295 296 297 298 299 298 299 302 303 302 303 304 304 306 306 306 305 307 307 306 306 306 307 307 307 307 307 307 306 307
274 279 278 280 277 270 270 280 283 284 281 281 280 279 280 281 282 279 280 281 282 282 282 282 282 282 283 283 284 285 285 287 288 290 290 290 290 291 293 294 294 294 294 294 294 295 295 296 296 294 295 295 294 294 294 294 294 293 292 292 293 294 295 295 297 299 299 300 300 299 299 300 302 304 305 305 304 303 301 300 303 303 303 304 303 304 304
273 275 277 274 269 270 280 283 283 284 283 282 280 280 281 281 282 283 282 282 283 283 283 283 283 283 284 285 285 285 286 285 285 286 287 287 287 287 288 289 290 292 294 295 295 297 297 298 296 296 295 295 295 295 295 294 294 295 293 293 293 293 293 294 294 295 296 296 295 295 296 296 298 299 300 298 297 297 298 299 300 300 300 299 298 298 298
271 270 269 267 267 278 281 282 283 285 285 282 282 281 281 281 281 281 280 282 282 283 283 284 284 284 284 285 285 285 286 286 285 285 286 287 288 288 289 289 288 289 292 294 295 296 298 297 297 297 295 294 296 296 295 295 295 295 296 295 295 295 295 295 294 295 295 295 295 294 294 295 296 296 296 297 297 296 295 294 294 295 295 295 296 296 296
273 268 263 267 278 278 281 279 281 280 280 280 277 273 278 281 280 280 279 280 281 282 282 282 281 282 282 283 283 285 285 285 286 285 285 286 286 287 288 289 290 290 291 293 294 294 295 295 294 295 297 298 297 299 297 297 297 298 297 297 295 295 296 295 297 296 297 297 295 295 295 296 297 297 296 294 294 294 294 293 294 294 294 293 292 294 294
269 269 266 266 264 265 274 278 280 283 283 282 281 276 276 280 279 281 280 279 280 280 280 280 281 281 279 279 279 283 285 285 285 286 286 286 286 286 286 287 288 289 289 291 292 292 292 293 292 292 294 295 294 294 295 295 295 296 297 297 298 296 296 297 296 296 296 296 297 296 294 295 296 296 295 294 295 296 294 293 294 295 293 291 290 292 292
270 268 266 264 265 266 271 279 280 282 282 282 279 276 275 279 279 280 280 280 280 280 280 280 281 280 275 277 279 282 284 285 285 285 286 286 286 286 286 286 287 288 289 292 292 292 292 292 292 291 291 292 294 293 294 293 294 294 295 295 296 297 296 297 298 298 296 296 295 296 295 295 295 294 294 296 295 294 293 294 296 295 293 291 289 289 290
271 268 267 267 263 270 278 278 280 282 282 282 279 270 267 278 280 280 279 279 279 280 280 280 280 278 273 277 279 282 284 284 285 285 286 287 287 287 287 287 287 288 289 289 289 289 289 290 290 291 290 291 294 294 294 293 294 293 294 296 296 295 295 297 298 297 296 297 296 295 295 295 294 294 294 294 292 293 292 293 294 292 292 290 290 288 288
271 272 269 272 272 277 280 281 282 282 283 281 272 268 271 280 280 281 280 280 281 280 281 279 277 281 279 281 283 284 285 285 286 287 287 287 288 288 288 289 291 287 287 286 287 287 288 289 289 290 290 291 291 292 291 291 292 293 293 293 293 293 295 295 296 297 297 297 298 297 297 297 296 296 295 294 293 294 293 292 292 291 290 289 288 287 287
268 266 270 272 271 276 280 280 282 282 281 272 268 274 279 280 281 281 281 281 282 282 282 280 280 282 282 285 283 284 284 284 284 286 287 288 289 289 290 290 290 287 287 287 287 287 287 288 289 289 289 290 290 289 289 290 291 291 290 291 291 292 292 292 293 294 296 297 297 298 297 296 296 296 295 295 295 294 293 293 293 291 289 289 288 287 286
268 265 266 269 268 276 282 282 280 281 274 273 280 282 283 283 281 281 282 282 283 283 284 283 283 281 281 282 283 283 283 283 284 285 285 285 286 286 286 287 288 288 287 287 287 288 288 288 288 288 289 290 289 289 289 290 290 289 290 290 290 290 291 292 293 294 294 294 295 297 297 297 298 297 295 295 295 294 293 293 293 291 290 288 288 287 287
268 267 267 268 274 277 283 280 274 280 283 285 286 285 283 286 285 284 284 284 285 284 285 285 284 283 282 282 282 282 282 283 283 283 283 283 284 285 286 287 287 289 287 287 287 287 288 288 288 288 288 289 289 289 289 289 289 290 290 290 289 290 291 290 291 292 293 293 293 294 295 295 294 294 294 294 294 294 294 294 293 291 289 288 287 288 287
274 273 276 280 283 283 285 285 285 285 288 289 290 289 287 286 287 288 286 287 287 286 286 286 284 283 283 282 282 282 282 282 283 284 284 284 284 284 284 285 287 287 287 287 287 288 288 288 288 287 288 288 289 288 289 290 290 290 291 291 290 290 290 290 290 290 291 290 291 291 291 292 293 293 292 292 293 291 293 292 292 293 290 289 290 288 286
282 283 283 285 284 284 284 287 288 288 288 288 289 288 285 286 286 285 285 286 285 285 284 284 282 282 282 281 282 282 282 282 283 284 284 284 284 284 284 285 286 287 286 285 285 286 288 288 288 288 287 287 288 289 289 289 289 289 292 292 292 292 291 290 290 290 290 291 291 290 290 289 291 291 292 292 292 291 292 293 293 293 290 288 288 287 286
273 270 280 280 281 282 283 284 285 285 286 285 285 284 284 285 284 284 284 284 284 283 283 282 281 281 281 280 281 281 282 282 283 283 284 284 284 284 284 285 286 285 285 286 286 287 287 288 288 288 286 286 287 288 289 289 289 289 289 290 291 291 292 292 292 291 290 290 291 291 289 287 287 289 290 290 291 290 291 291 290 290 289 289 289 287 286
267 269 278 279 280 280 281 280 282 283 283 284 284 284 284 284 284 284 284 283 283 282 282 281 281 281 279 279 280 280 281 282 282 283 283 283 284 284 284 285 285 284 284 284 285 286 286 287 286 286 286 287 287 287 288 288 288 288 289 289 289 289 289 290 291 291 292 289 290 291 291 288 288 289 288 289 289 290 290 291 291 290 289 288 289 289 287
277 278 279 279 280 280 280 281 281 281 281 281 282 281 281 281 281 280 281 281 280 280 281 280 279 279 280 279 280 280 280 281 281 282 283 283 283 283 284 284 285 284 285 285 285 285 286 286 285 285 286 286 287 287 287 288 288 288 289 289 289 288 288 288 289 290 290 291 291 291 291 291 288 287 288 289 290 290 289 291 293 293 291 291 291 291 290
269 272 277 279 273 270 278 279 280 282 282 281 281 281 282 281 281 280 280 280 279 280 281 281 280 279 279 279 279 279 280 280 280 281 281 282 282 283 283 284 284 284 286 285 285 285 285 285 285 285 286 286 287 287 287 287 287 288 289 289 288 288 288 288 288 288 289 289 289 289 290 290 290 289 284 286 287 290 291 290 290 290 291 292 292 291 290
269 274 278 279 276 276 276 280 282 281 281 281 281 281 280 281 280 279 279 279 279 279 279 280 280 279 279 279 279 279 279 280 280 281 281 281 281 282 282 282 283 283 284 286 286 285 285 286 286 286 286 286 286 287 287 288 288 288 288 288 288 288 288 288 288 289 288 288 288 288 288 288 289 289 289 288 287 287 287 288 288 288 290 290 290 290 292
278 277 277 279 279 279 281 280 280 282 280 281 281 281 280 280 280 279 278 280 280 278 278 279 279 279 279 279 278 279 280 280 280 281 281 282 282 283 283 283 283 283 284 284 284 285 286 286 286 286 286 286 286 287 287 287 287 287 287 287 287 287 288 288 288 288 288 288 288 287 287 287 288 287 287 288 289 288 287 287 288 290 289 290 290 289 290
280 281 278 279 279 279 279 280 281 281 283 282 281 280 280 280 280 279 279 279 279 279 278 279 279 279 279 280 279 280 281 281 282 283 284 285 285 284 284 284 283 283 284 285 285 285 285 285 285 285 285 285 286 286 287 287 287 287 287 288 288 288 289 288 288 287 288 288 288 287 287 287 287 287 287 287 287 289 287 288 287 287 287 288 288 289 288
281 280 280 280 280 280 281 281 280 280 281 283 283 283 283 285 282 282 279 279 279 278 279 279 279 280 279 280 281 283 283 282 283 285 284 284 284 285 285 285 285 285 285 284 284 284 284 284 284 284 284 285 286 286 287 287 288 288 289 289 289 290 290 290 290 290 289 289 288 287 287 287 287 287 287 287 288 288 288 287 288 287 287 287 287 288 288
280 280 281 281 280 281 280 280 279 281 280 280 282 283 283 282 286 282 280 280 279 280 280 279 279 280 280 281 283 284 284 284 284 284 284 284 284 284 285 286 286 286 285 285 285 284 284 285 285 285 285 286 287 288 288 288 288 289 289 290 290 289 288 288 291 291 291 290 290 289 288 287 286 286 287 287 287 287 287 288 288 285 282 285 286 287 287
280 279 280 279 276 278 280 280 281 281 281 281 281 281 280 279 278 279 279 280 280 280 280 279 279 280 280 282 284 284 284 283 283 283 284 284 285 286 287 287 287 287 287 286 286 287 287 287 287 288 288 288 289 289 289 290 290 290 290 290 291 291 291 289 289 290 291 291 291 290 290 289 288 287 286 286 286 287 286 287 285 283 283 283 284 286 287
281 281 280 280 279 279 280 281 281 282 282 284 282 279 279 279 278 279 279 279 279 279 280 280 280 280 282 284 284 284 283 283 283 283 284 285 286 286 287 287 286 286 286 287 287 287 287 286 286 286 287 288 289 290 290 290 290 291 291 291 291 291 291 291 291 290 290 290 290 290 287 289 288 287 286 285 285 285 286 285 284 283 284 284 285 286 286
279 280 280 280 280 281 281 280 281 282 282 281 279 280 279 279 279 279 278 278 279 279 279 279 280 282 283 284 284 284 283 283 283 284 285 285 285 286 285 286 285 286 286 286 285 286 286 286 286 286 287 289 289 290 290 291 291 291 291 291 291 291 291 291 291 291 290 290 289 287 288 288 287 287 286 285 285 285 284 284 284 284 283 284 285 285 284
279 279 279 279 280 280 281 281 282 282 281 279 278 279 278 277 277 277 278 279 278 279 279 279 280 282 284 284 284 285 284 284 284 284 284 284 285 285 285 285 283 283 284 284 285 285 285 285 286 286 288 289 289 290 291 291 291 291 290 290 290 288 287 287 288 291 291 289 288 288 288 287 286 285 284 284 284 284 284 284 284 284 284 284 284 284 283
279 280 280 280 279 279 280 281 281 281 279 279 280 279 277 277 277 277 278 278 278 278 278 279 280 282 284 284 284 284 284 284 284 283 284 284 284 284 285 285 285 285 285 285 285 285 285 285 285 286 288 289 290 291 291 291 290 289 289 288 288 288 288 287 287 288 289 288 288 287 286 286 286 285 284 284 284 285 284 284 284 284 284 284 284 284 284
279 279 279 280 280 280 280 280 280 279 279 279 278 278 278 279 279 280 280 279 279 278 279 280 282 283 283 284 284 284 284 283 283 283 283 283 284 284 285 285 285 285 285 285 285 285 285 285 285 287 288 289 290 291 291 291 290 289 289 289 288 288 286 287 288 289 288 287 287 287 286 286 286 285 285 284 285 284 284 284 284 284 284 284 285 284 284
281 280 281 281 281 281 280 281 280 279 278 279 277 278 279 280 281 281 280 279 278 278 279 281 282 283 283 283 283 284 284 282 281 282 282 282 283 284 284 285 285 285 285 285 285 285 285 285 286 286 287 289 290 290 290 290 290 289 289 289 289 288 288 287 287 287 286 286 285 285 285 285 285 285 284 284 284 284 284 284 285 285 284 284 285 285 285
281 281 280 280 281 282 282 281 281 280 280 279 280 279 280 280 280 281 280 279 278 279 279 279 281 281 281 281 282 283 283 282 282 282 282 282 282 283 284 284 285 285 285 285 284 284 285 286 286 286 287 288 289 289 288 288 289 290 289 289 289 288 288 287 287 287 286 286 286 286 285 285 285 285 285 285 285 285 285 285 285 285 285 284 284 285 285
280 281 282 282 281 280 280 280 280 281 281 280 278 278 279 280 280 280 279 279 280 281 279 278 278 278 278 278 278 279 281 282 282 282 282 282 283 283 283 283 283 283 282 283 284 284 285 285 285 285 286 286 287 288 287 286 288 289 289 289 289 289 288 288 287 287 287 286 286 286 285 285 285 285 285 285 286 286 285 285 285 285 285 285 285 285 284
280 282 282 281 280 280 280 280 280 280 280 281 280 278 279 279 280 280 280 281 282 281 278 277 277 277 277 277 277 278 280 281 282 282 282 283 283 283 283 282 282 281 281 281 282 284 284 284 284 285 285 285 285 286 286 285 287 287 287 288 288 288 288 288 288 288 287 287 287 286 286 286 286 286 286 286 285 286 286 285 285 285 285 285 285 285 284
281 282 282 282 281 280 280 280 280 280 280 280 279 279 280 280 280 280 280 280 280 279 277 277 277 277 278 279 278 277 278 280 281 281 282 282 282 282 282 281 281 280 280 280 283 283 284 284 284 284 284 283 283 284 285 285 286 287 286 286 286 286 286 287 287 287 287 287 286 287 286 286 286 286 286 286 286 285 285 285 285 285 284 284 284 284 284
281 281 281 281 280 280 280 280 279 279 279 281 281 280 280 280 279 279 280 281 280 279 280 280 279 280 279 278 277 277 279 280 280 281 281 282 283 282 281 281 281 281 281 283 283 283 284 284 284 284 283 283 283 284 284 285 285 286 286 285 285 285 285 286 286 285 286 286 286 286 286 285 285 285 285 285 285 284 284 284 284 284 284 283 283 283 282
280 281 282 280 280 280 280 280 279 279 279 279 279 281 281 279 278 279 278 278 278 279 281 281 281 280 279 278 278 278 279 280 280 280 280 281 282 282 282 282 282 282 283 283 283 283 284 284 284 284 284 284 283 283 283 284 284 285 285 285 284 284 284 284 284 285 285 285 285 284 284 284 284 284 283 283 283 283 283 283 283 283 282 282 282 282 281
281 281 280 280 280 279 280 279 280 280 278 279 279 280 279 279 279 279 278 278 278 279 279 280 281 280 279 279 279 280 280 279 279 279 279 280 281 281 280 280 281 282 282 283 283 283 284 283 283 283 284 284 284 283 283 283 283 284 284 283 283 283 283 283 282 283 283 283 283 283 283 283 283 283 282 282 282 282 282 282 282 282 282 281 281 282 281
281 280 279 280 280 280 280 280 280 280 280 280 280 279 279 278 278 279 278 278 278 279 278 279 280 280 280 280 279 279 279 279 279 279 279 278 278 278 278 279 281 280 282 282 282 282 282 282 282 283 283 284 284 284 284 284 284 283 283 283 283 283 282 282 282 282 282 282 282 282 282 282 282 281 282 281 281 281 281 281 281 281 281 281 281 281 281
280 281 281 281 281 280 280 280 280 281 280 281 280 280 280 278 278 278 279 278 278 278 278 278 279 279 279 279 278 278 278 278 278 278 279 279 279 279 278 279 279 280 281 281 281 280 280 281 281 282 283 283 284 284 284 284 284 284 283 283 282 282 282 282 282 282 282 281 281 281 281 281 280 280 280 280 280 280 280 280 280 280 281 281 281 281 281
280 281 281 281 281 281 280 280 280 279 279 281 281 280 279 278 278 279 279 278 278 278 278 278 278 278 277 277 277 277 277 277 278 277 277 278 279 279 279 279 279 279 280 279 279 279 279 280 280 281 282 282 283 283 282 282 282 283 283 283 282 282 282 282 281 281 281 281 281 280 280 280 280 280 280 280 280 280 280 280 280 281 281 281 281 281 281
281 281 281 282 282 281 281 281 281 281 281 280 280 279 278 278 278 278 279 278 278 278 278 277 277 277 277 277 277 277 277 277 277 277 278 277 276 277 279 279 279 278 279 279 279 279 279 279 280 280 280 280 281 281 280 280 281 281 281 281 281 281 281 281 281 281 281 281 281 281 280 280 280 280 280 280 280 280 280 280 280 280 280 281 281 281 282
281 282 281 281 281 282 283 283 282 281 280 280 280 279 278 278 279 279 278 279 278 278 279 278 278 278 277 277 277 277 277 277 277 277 278 277 277 278 279 279 278 279 279 279 278 278 279 279 279 279 279 279 279 279 279 279 279 280 280 280 280 280 280 280 280 280 281 281 281 281 281 281 281 281 281 280 280 280 281 281 280 281 281 281 281 281 281
282 282 282 282 283 283 282 282 281 281 280 280 280 281 279 278 279 279 279 279 279 278 278 278 278 278 277 278 278 277 276 277 278 277 277 277 277 278 278 279 279 279 278 278 278 278 277 278 279 279 279 279 278 278 279 279 279 279 279 279 279 279 279 279 279 280 280 280 281 281 281 281 282 282 282 282 281 281 281 281 281 281 281 281 281 281 281
283 283 283 283 283 283 281 280 280 281 281 282 282 282 281 279 279 279 278 278 278 278 278 278 278 278 277 277 277 277 277 277 274 276 276 277 277 277 277 277 277 278 278 278 278 278 279 279 279 278 278 278 278 278 278 278 278 278 278 278 278 278 277 278 278 278 278 279 279 279 279 279 280 280 281 281 281 281 281 281 280 280 280 280 280 280 280
282 283 283 283 282 282 282 282 281 281 282 282 281 282 280 279 279 279 279 278 278 278 277 278 278 278 278 278 278 277 278 277 274 273 276 277 277 277 277 279 279 279 277 277 278 276 278 278 278 278 278 277 277 277 278 278 277 277 277 277 277 277 277 277 277 277 278 278 278 278 278 278 278 278 278 279 279 279 280 280 280 279 279 279 279 279 279
281 281 281 281 282 282 282 282 282 283 284 283 282 282 279 279 278 279 279 278 278 278 277 277 277 278 278 278 278 278 278 278 278 277 277 277 277 277 278 278 277 278 278 277 277 276 278 278 278 277 276 275 277 277 277 277 277 276 276 276 276 276 277 277 278 278 277 278 278 277 277 277 277 278 277 277 277 277 277 277 277 278 279 278 278 278 278
281 281 282 283 283 284 284 285 285 285 284 284 283 281 279 279 280 280 279 279 278 278 277 277 277 277 277 278 278 278 278 278 278 278 277 277 278 278 278 278 277 277 277 276 275 273 274 274 275 275 276 276 276 276 275 276 276 275 276 275 275 274 276 276 275 276 276 276 276 277 276 276 277 276 276 276 275 275 275 275 274 274 275 275 276 277 277
284 284 284 284 283 283 283 284 284 283 283 283 282 281 280 280 280 279 279 279 279 279 279 277 277 277 276 277 278 277 277 277 277 278 278 278 278 278 278 278 277 276 277 275 275 276 274 275 277 278 277 275 274 275 277 277 275 275 275 275 276 276 276 274 275 275 275 276 276 276 276 276 276 276 275 275 274 274 273 273 273 273 273 272 273 273 273
Wind_Speed
6 6 5 6 6 4 2 3 3 4 5 6 4 1 1 2 2 6 1 3 4 2 4 5 5 4 4 4 5 4 3 4 6 8 9 8 8 7 8 7 7 7 7 6 7 7 7 6 7 5 4 3 3 3 3 4 4 4 4 5 5 5 5 6 6 7 7 5 4 5 6 6 5 5 5 5 5 5 4 3 4 3 3 1 0 2 2
7 8 7 9 9 5 5 7 5 3 9 7 6 4 3 0 2 5 9 10 6 1 3 4 4 4 3 4 4 8 11 7 6 8 9 9 8 8 7 7 6 6 6 6 6 6 7 7 7 7 6 6 3 3 4 3 4 3 5 4 4 4 4 5 3 2 1 1 2 3 5 6 7 6 6 5 5 4 5 4 5 7 6 3 4 5 3
1 6 3 4 3 3 3 3 5 5 6 10 6 3 3 7 6 3 9 11 7 2 1 4 4 3 3 11 14 10 7 7 8 10 9 8 7 6 6 6 7 6 6 6 6 8 8 8 7 6 5 4 5 5 3 2 3 3 4 5 4 5 4 3 3 2 3 2 2 3 3 3 3 3 5 5 5 3 4 2 5 5 4 3 3 2 3
2 3 2 4 5 4 4 1 2 3 4 6 1 2 1 1 5 4 5 7 3 1 3 3 4 10 14 11 9 10 8 7 9 11 9 8 7 7 6 5 5 7 7 7 7 7 7 8 8 8 7 6 7 7 5 4 3 1 3 3 4 4 3 3 3 3 4 5 5 4 4 5 6 7 4 4 5 4 4 3 2 3 4 5 4 4 4
3 1 2 8 7 6 2 1 2 2 3 6 5 3 4 3 1 4 6 5 2 1 1 6 9 11 10 12 8 7 8 8 8 9 7 6 6 6 6 5 5 4 4 4 4 5 6 8 8 8 7 9 8 5 6 4 3 3 3 3 2 2 3 3 3 3 4 4 4 4 5 5 4 3 1 1 2 4 5 5 5 5 4 3 2 1 1
3 2 2 0 2 2 4 2 3 1 2 3 8 3 3 5 2 1 2 4 3 4 5 10 7 11 9 7 5 4 5 6 8 9 8 8 8 8 8 7 7 6 6 5 4 5 5 4 5 4 5 6 5 5 5 5 8 6 6 3 3 1 1 1 2 3 4 4 4 4 3 3 3 2 1 2 1 1 2 3 3 3 2 2 2 1 1
4 0 2 3 2 6 2 5 1 2 7 9 14 7 5 5 5 6 9 7 7 4 5 8 8 8 6 7 9 9 7 6 7 8 9 9 9 9 10 11 11 10 9 9 8 8 7 5 4 6 7 6 5 8 8 8 6 7 7 6 6 6 4 3 2 1 1 3 3 3 3 3 3 3 3 1 2 3 3 4 5 5 5 4 3 4 3
3 3 2 3 4 1 2 2 1 1 1 1 5 10 5 5 3 1 4 3 3 3 4 4 4 6 6 8 9 8 7 6 6 7 7 6 8 8 6 8 8 9 9 8 8 7 4 6 7 6 6 4 6 6 4 7 7 7 6 7 8 7 8 7 3 2 1 2 4 4 4 4 5 5 4 5 5 4 5 5 4 6 4 5 5 5 4
4 2 3 1 2 1 1 0 1 2 1 1 2 5 0 2 2 2 3 2 1 1 0 1 1 0 2 8 8 6 6 6 5 4 4 4 4 3 3 1 1 1 2 3 3 4 5 6 8 7 6 8 7 6 9 8 6 6 6 8 7 7 6 7 7 5 2 1 3 6 5 5 5 5 5 3 3 2 6 4 5 4 4 5 3 5 4
6 7 4 1 2 1 6 2 1 1 0 1 3 5 0 2 3 0 3 3 1 2 2 2 2 1 6 7 5 5 5 3 4 4 3 3 3 3 3 4 4 4 4 4 5 6 7 8 6 5 5 3 3 4 1 1 3 4 5 4 3 3 4 4 5 6 5 2 0 0 1 5 6 5 4 3 4 4 7 6 4 5 6 5 3 2 3
4 3 6 4 6 5 4 1 3 2 2 4 3 4 1 0 0 2 2 5 2 3 3 1 1 2 3 0 2 4 4 5 3 4 4 4 3 3 4 4 5 6 6 4 4 7 8 9 9 7 5 5 4 4 4 3 3 2 1 1 1 1 2 3 4 4 2 1 2 1 3 3 1 2 3 3 3 3 4 6 5 5 4 6 4 3 2
0 5 4 3 2 1 0 3 4 4 0 3 3 2 4 2 2 1 2 4 3 1 1 2 7 5 4 2 1 1 3 3 4 4 5 7 6 6 4 4 4 4 4 5 7 7 6 4 6 7 6 6 5 5 4 3 4 4 5 6 6 4 3 4 3 5 3 1 0 1 2 2 2 2 2 3 4 5 4 5 6 4 3 5 6 3 1
3 6 0 3 2 2 2 2 4 6 2 3 4 7 3 0 2 2 1 1 1 0 4 2 3 0 1 1 1 2 3 4 5 4 3 3 3 4 5 6 6 5 5 4 4 4 3 4 5 4 5 6 7 6 5 4 4 4 4 5 6 5 4 3 4 5 5 4 4 4 3 2 2 2 4 5 5 5 5 5 5 4 4 4 5 4 3
1 2 6 3 1 3 1 2 2 3 2 4 6 2 2 2 1 1 1 2 2 3 4 3 1 0 3 3 3 3 4 3 3 4 5 6 7 6 5 6 6 6 6 6 5 5 4 3 3 3 2 3 2 3 4 5 4 4 4 4 5 5 4 4 4 5 5 5 3 3 2 4 3 3 2 3 5 5 5 5 5 4 3 4 4 4 3
2 3 3 2 0 1 4 4 2 4 3 1 2 2 1 1 1 1 1 1 0 1 3 1 1 2 2 2 3 3 4 3 4 5 6 6 6 8 8 8 8 6 6 6 6 5 5 5 3 3 3 3 3 1 2 3 3 3 4 4 4 4 4 5 4 3 5 4 4 3 2 3 5 6 4 6 5 6 7 6 6 5 5 4 4 3 3
2 1 1 1 0 3 5 2 3 1 2 4 1 2 2 3 2 2 3 2 1 0 1 2 3 1 2 3 2 3 3 3 3 3 3 3 4 6 6 5 6 5 6 6 5 5 6 5 4 3 3 4 4 4 5 4 4 4 4 4 3 4 4 5 6 6 4 3 2 2 2 2 3 3 6 5 6 6 7 8 7 6 5 4 4 4 3
1 1 3 2 1 2 5 6 6 4 2 3 2 4 3 3 1 0 1 2 3 4 4 4 3 3 1 2 2 1 3 4 4 4 5 5 5 5 5 6 7 6 6 7 8 8 7 6 5 4 1 2 4 4 3 3 4 4 4 4 4 4 5 4 5 5 6 6 5 2 1 1 3 3 2 3 5 3 6 7 7 8 6 6 6 5 5
4 7 5 3 1 1 3 3 2 6 4 2 3 5 3 2 1 2 1 2 2 3 2 3 4 4 5 6 7 6 5 5 5 4 4 4 3 4 4 5 5 5 6 5 5 6 8 8 7 6 4 1 3 4 3 3 3 3 4 5 5 5 4 3 3 3 5 7 6 6 4 1 2 3 4 5 5 6 6 7 8 8 7 6 6 6 5
3 0 1 1 2 1 1 2 1 1 2 1 1 2 2 2 3 2 1 0 2 2 3 3 3 4 5 6 6 6 6 7 7 7 7 6 4 5 6 5 4 5 4 6 6 5 5 6 6 6 5 4 3 5 6 5 4 3 3 4 5 5 5 5 4 3 4 4 6 6 4 5 5 3 2 3 4 6 6 7 6 6 7 7 6 6 6
3 2 4 2 0 1 1 0 2 3 3 3 3 2 2 3 3 3 2 1 4 2 3 2 1 3 3 3 4 4 5 6 6 7 7 8 8 7 5 6 5 4 4 4 6 5 6 6 4 4 4 5 4 5 5 5 5 4 4 4 4 5 6 6 6 5 5 5 5 5 4 3 5 6 5 3 5 6 7 8 8 7 7 7 8 8 7
1 1 1 1 2 2 2 1 1 1 2 3 3 2 3 3 4 3 3 4 2 2 1 1 2 3 4 3 4 4 5 6 6 7 8 7 7 8 9 8 6 6 6 6 5 4 5 4 4 4 5 5 4 4 5 5 5 6 7 5 5 5 5 5 7 6 5 5 5 5 6 3 2 4 5 5 6 6 5 5 7 8 9 7 7 8 8
1 4 4 5 2 2 4 4 3 0 0 3 2 2 3 4 3 3 4 3 2 1 1 1 1 3 4 4 4 5 5 6 7 7 7 7 8 8 7 7 7 8 7 7 6 5 4 3 3 4 5 5 5 4 4 4 4 5 7 8 8 8 6 6 7 6 6 6 5 5 6 6 5 3 3 6 4 4 5 4 7 6 6 8 8 8 8
1 3 4 5 3 1 3 4 2 1 2 3 3 2 2 1 2 2 3 2 3 3 4 1 2 3 3 5 4 5 5 6 7 7 8 9 8 9 7 8 8 8 9 8 6 6 5 4 5 5 6 6 6 6 5 5 5 6 6 8 8 9 8 8 8 7 7 7 6 6 6 6 5 5 6 3 5 5 6 7 7 7 8 7 7 11 9
1 2 4 6 3 2 2 3 2 1 2 4 3 1 1 2 3 2 2 2 1 2 2 3 2 3 4 4 4 6 6 6 7 8 7 8 8 8 8 7 8 9 9 8 6 6 6 7 7 7 7 7 7 8 7 6 6 8 8 8 9 9 8 8 9 9 8 8 7 7 7 6 6 6 6 6 5 1 6 4 1 4 6 8 9 11 11
0 1 4 5 3 1 0 2 1 1 2 4 5 4 4 3 3 3 3 2 2 2 2 3 4 3 4 5 4 6 7 8 8 8 10 9 10 9 9 9 9 8 9 8 7 7 7 8 9 9 9 10 9 9 8 7 7 8 9 9 10 9 8 9 9 9 8 8 7 7 7 7 7 6 6 6 6 7 2 7 9 9 5 2 7 10 10
1 3 4 3 3 3 2 4 3 2 3 3 2 2 4 4 4 3 3 3 2 2 2 3 4 5 3 5 6 7 8 7 7 9 8 9 8 8 9 9 9 8 8 7 7 8 9 9 9 9 10 10 9 8 7 7 7 8 9 9 10 9 8 9 9 9 8 8 8 8 7 6 6 6 7 7 7 7 6 3 2 6 9 8 3 7 8
2 4 5 4 2 0 2 5 3 4 4 3 5 5 4 3 3 2 1 2 2 1 1 3 3 4 4 5 6 7 8 8 7 7 7 8 9 9 8 8 8 9 9 9 8 9 9 9 9 9 9 9 8 7 7 7 8 8 9 9 9 11 15 12 9 9 9 9 9 8 7 7 6 6 7 7 6 6 7 7 6 3 1 4 5 3 4
2 2 2 2 2 3 3 3 5 6 4 5 4 4 2 1 1 0 2 3 4 4 4 2 3 4 6 6 6 7 7 6 7 8 8 8 8 7 7 8 9 8 8 7 8 7 7 7 7 8 9 8 8 8 8 8 8 9 9 10 10 10 9 12 11 10 10 9 9 8 8 7 6 6 6 6 6 7 6 5 6 6 4 3 3 5 7
1 1 0 0 2 2 3 4 4 4 3 2 2 2 2 1 0 1 2 2 2 2 4 4 3 3 4 6 6 6 6 7 7 9 8 8 7 6 6 7 7 7 7 7 6 6 6 7 8 8 10 9 8 8 8 9 9 9 9 9 9 9 9 10 10 9 10 10 9 9 8 7 6 6 6 6 6 5 6 6 6 5 5 6 6 6 6
0 2 2 3 4 6 7 4 5 3 4 3 2 1 1 1 2 3 2 3 2 3 4 3 4 5 5 5 5 7 8 8 7 7 6 6 6 6 7 7 7 5 4 4 5 6 7 7 7 8 9 9 9 9 9 9 9 9 10 10 9 9 9 9 9 9 9 9 9 10 9 7 6 6 6 6 6 7 7 6 7 7 7 6 4 6 6
3 3 4 3 4 3 5 5 3 3 1 0 1 1 1 2 1 2 3 3 3 3 4 3 4 5 4 5 6 6 6 6 6 5 6 6 6 5 6 5 4 5 5 6 6 6 7 7 7 7 8 9 9 9 8 8 7 7 7 7 7 10 13 15 11 8 7 7 7 8 7 7 6 6 5 6 5 5 6 7 7 6 6 6 5 6 6
4 4 5 2 2 3 2 2 4 3 3 1 1 1 3 2 2 2 3 3 4 3 4 5 5 5 4 4 5 6 5 5 5 5 5 5 5 6 5 5 4 4 5 5 5 6 6 6 8 9 10 9 9 9 8 8 7 7 7 7 7 6 7 6 4 5 5 5 6 6 6 6 6 6 6 7 7 7 7 8 7 7 7 8 6 4 5
4 1 1 0 1 1 3 4 4 3 3 3 4 3 3 3 2 3 4 4 4 4 4 5 4 4 3 3 5 5 5 5 5 5 6 6 7 7 6 5 4 4 4 4 5 5 5 6 8 9 9 9 9 9 8 8 7 7 7 6 5 5 5 4 3 3 3 4 4 5 5 5 6 6 7 7 6 5 6 6 7 7 6 7 6 7 7
7 6 6 6 7 6 6 6 4 3 3 3 2 2 3 3 3 4 4 4 4 5 5 4 4 4 3 3 3 5 5 4 4 6 7 7 7 8 7 6 5 5 4 4 5 5 6 7 7 8 9 9 8 8 9 9 7 6 6 6 5 5 5 5 6 5 4 4 3 3 4 3 4 5 5 6 6 5 6 7 7 7 7 7 7 6 6
4 4 3 4 5 5 5 6 5 4 4 4 4 3 4 4 3 4 4 3 4 5 4 3 4 3 2 2 3 4 4 5 5 5 6 6 6 7 6 6 5 4 4 5 7 8 8 7 8 8 8 8 8 9 10 10 8 7 7 7 7 7 7 7 7 6 6 6 5 6 6 6 6 6 7 7 7 7 7 7 7 7 7 8 7 7 5
3 2 2 3 2 3 4 4 4 5 5 5 5 4 4 4 4 4 5 5 4 4 4 3 2 1 1 2 2 2 3 4 4 5 5 6 6 5 5 5 6 6 6 6 8 8 9 8 11 12 8 7 8 9 10 10 7 7 8 8 7 7 7 8 7 8 7 7 7 7 7 8 8 8 8 8 7 8 8 8 8 7 7 7 6 7 6
4 4 3 3 3 4 4 3 4 4 5 5 4 4 5 4 5 5 4 3 4 4 3 2 1 1 1 0 1 1 1 2 3 4 4 4 4 4 4 5 6 7 6 7 8 8 8 8 11 12 8 8 9 9 11 13 7 7 7 8 8 8 7 8 8 8 8 8 8 8 8 8 8 8 7 7 8 8 8 8 8 8 8 7 6 6 6
4 4 4 5 4 4 4 4 3 3 2 1 3 3 4 4 4 4 4 4 4 4 2 1 1 1 1 1 2 2 3 3 4 4 5 5 4 3 4 5 6 5 5 5 7 7 6 8 10 7 7 7 7 8 10 14 11 8 8 8 7 7 8 8 8 8 8 8 7 8 8 8 8 8 7 7 8 8 8 8 8 8 7 6 6 6 6
1 1 1 1 1 3 3 1 2 2 3 4 5 4 4 4 4 2 3 4 4 2 1 0 2 2 1 2 1 2 3 3 4 5 5 5 4 2 3 3 2 3 3 6 6 5 6 7 6 6 7 7 7 7 9 11 11 8 7 7 8 7 7 7 8 8 8 8 8 8 8 8 8 8 8 8 7 8 8 8 8 7 6 5 5 5 5
3 4 4 3 3 4 2 3 3 4 3 3 3 5 5 3 3 2 3 3 3 1 1 3 3 2 1 1 1 1 3 4 4 4 4 4 4 3 1 3 4 5 6 7 5 4 6 8 6 6 6 6 6 6 6 9 9 8 8 8 7 7 7 7 7 8 7 8 9 9 9 9 8 8 8 8 8 8 7 7 8 7 6 6 6 6 7
4 4 3 4 4 4 4 4 4 4 3 3 4 5 4 4 3 1 3 3 2 1 2 3 3 2 2 1 1 0 1 2 3 3 4 4 3 3 3 4 5 6 7 6 5 5 6 6 6 6 5 5 6 6 6 8 8 7 7 7 7 7 8 8 8 7 7 7 7 7 7 6 7 7 6 7 7 7 7 7 7 7 6 7 7 7 7
4 3 3 4 4 4 4 4 2 2 4 4 4 4 5 4 4 5 4 2 1 0 2 2 3 3 4 3 2 1 2 2 2 2 2 3 3 3 3 3 5 5 8 7 6 5 6 6 6 5 5 5 5 8 8 7 7 7 7 7 7 7 7 7 8 7 8 7 7 8 8 7 8 8 8 7 8 8 8 7 7 7 7 7 7 7 7
4 5 5 5 5 4 4 4 4 5 4 5 4 4 5 3 3 3 1 2 2 2 2 2 2 3 3 3 2 1 0 1 1 2 2 1 1 0 0 4 5 5 7 5 5 5 6 5 5 5 7 6 6 8 9 7 6 6 7 7 7 7 7 7 7 6 6 7 8 8 8 7 7 7 7 7 7 7 7 7 7 7 7 7 7 7 7
4 4 4 5 5 5 4 4 4 2 3 6 5 3 4 3 3 4 4 3 3 3 3 3 3 4 4 3 3 1 2 1 0 1 1 2 2 1 1 2 3 4 6 5 5 5 5 5 5 6 8 10 10 10 7 6 6 7 7 7 7 6 7 7 7 7 8 8 7 7 7 8 7 7 7 7 6 7 7 7 7 7 7 7 7 7 6
5 5 6 7 6 4 4 5 5 7 6 3 2 2 2 3 3 3 3 3 4 4 3 4 4 4 4 4 4 4 4 4 3 2 1 1 3 3 3 3 4 3 4 5 5 5 5 5 6 8 8 9 10 9 7 6 6 6 7 7 7 7 7 7 7 7 7 7 7 7 7 7 7 7 7 7 7 6 6 6 6 6 6 6 6 6 6
5 6 5 5 5 6 7 7 6 3 2 3 4 3 3 3 4 3 3 4 4 4 6 5 5 5 5 4 3 2 1 1 2 3 2 2 1 1 2 3 2 3 5 6 5 5 4 6 8 8 9 9 9 8 6 6 6 6 7 7 7 7 7 6 7 7 6 6 6 6 6 6 6 5 5 5 5 6 6 6 6 6 6 6 6 5 5
6 4 5 6 7 6 5 4 3 3 3 2 4 6 4 4 4 4 4 4 4 4 4 4 5 4 5 6 7 5 3 2 1 2 1 2 1 1 2 3 4 5 5 5 4 4 4 5 6 8 9 9 8 6 6 6 6 6 6 6 6 6 6 6 6 6 6 6 6 6 6 6 6 6 6 6 6 6 6 6 6 5 4 5 5 5 5
6 7 7 6 8 6 3 3 4 4 5 8 7 7 5 3 4 5 3 3 3 3 3 3 4 4 4 4 4 3 5 7 3 2 2 2 1 2 3 3 2 4 5 5 5 5 7 7 8 8 8 8 6 5 6 6 6 6 6 6 6 6 5 5 5 5 5 6 6 5 5 4 5 6 5 5 5 5 5 5 4 4 4 4 4 4 4
6 7 6 5 4 3 4 5 5 5 7 7 6 7 4 4 4 4 4 3 3 3 4 3 4 4 5 5 5 5 4 3 2 1 3 4 2 3 2 3 4 4 3 4 4 4 6 7 7 7 8 6 5 5 5 5 6 6 5 5 4 5 5 4 3 3 4 5 5 5 5 4 5 5 5 5 5 5 5 5 5 4 4 4 5 5 5
4 3 4 5 6 6 6 6 7 8 8 6 7 7 3 4 4 6 6 6 6 5 5 4 5 5 6 6 5 5 5 4 2 1 1 3 3 3 3 3 2 3 4 4 3 3 4 6 6 6 6 4 5 5 5 5 5 4 4 5 6 5 6 6 5 6 6 6 6 6 5 4 4 5 6 4 4 4 5 5 4 6 8 6 5 4 4
5 6 7 7 7 8 7 8 9 8 7 7 7 5 5 6 7 6 6 7 5 5 6 6 5 5 5 5 5 5 4 4 3 3 4 4 3 4 4 3 2 2 2 3 2 1 2 3 3 4 4 3 3 4 3 4 3 4 4 4 4 5 5 6 5 4 5 4 5 4 4 4 5 5 4 4 4 5 5 5 4 4 4 4 4 3 3
6 6 6 5 6 5 5 5 5 4 4 5 4 5 6 7 6 6 5 6 7 8 7 6 6 6 5 5 6 5 5 5 4 5 4 5 5 4 4 4 3 2 4 3 1 2 1 2 3 4 4 4 3 3 4 5 5 4 3 5 4 4 5 5 5 4 3 3 3 4 5 4 3 4 4 4 4 5 4 4 4 4 3 3 3 3 3
Wind_Direction
32 34 51 60 60 48 82 39 353 33 33 44 74 103 127 90 118 198 214 95 84 337 337 331 320 325 333 0 12 16 28 28 30 41 38 31 28 26 31 23 23 24 19 5 5 4 360 8 17 16 46 78 112 115 132 153 154 159 154 146 148 151 162 169 176 171 185 182 172 144 145 140 137 152 158 143 136 107 95 137 147 87 23 46 7 253 125
13 8 39 54 49 16 32 11 11 18 74 66 79 70 352 213 128 142 118 88 77 318 316 331 330 331 23 39 34 42 40 27 42 59 49 42 36 33 30 26 25 29 25 18 11 10 9 10 8 13 18 29 30 103 125 140 140 155 139 143 147 155 174 191 181 148 117 134 156 151 151 161 162 160 155 147 143 137 183 174 135 140 207 215 184 210 199
312 316 348 52 101 110 76 8 27 46 84 75 48 70 32 71 62 84 103 87 64 359 360 7 360 11 62 53 44 45 44 41 55 64 57 51 47 39 38 35 35 39 38 34 34 33 21 15 10 8 9 12 34 40 36 80 135 149 133 142 160 176 184 206 210 152 127 158 158 177 163 134 139 164 184 139 129 153 226 169 141 155 163 208 235 228 224
304 297 60 102 80 76 99 41 18 20 62 90 351 56 307 105 157 168 98 86 118 119 355 38 41 58 53 54 47 48 42 45 61 66 62 59 53 49 42 39 41 48 47 43 45 43 36 31 24 18 10 17 36 28 28 23 356 45 104 132 163 200 211 205 211 181 152 153 164 169 156 170 189 207 150 133 147 163 180 220 194 145 182 210 214 200 210
203 126 128 133 130 101 72 253 351 28 66 117 117 64 44 33 91 118 141 183 210 201 296 85 48 64 60 52 37 42 44 45 56 59 54 43 33 23 21 25 27 28 39 42 44 35 35 31 31 19 22 38 28 14 29 1 27 44 96 133 165 207 243 211 199 168 150 151 165 171 191 187 197 226 220 162 160 156 169 166 160 172 178 186 218 200 178
190 94 153 293 82 153 221 268 277 190 158 195 102 51 3 351 49 139 172 132 130 84 74 89 84 71 64 71 57 53 60 51 51 50 45 41 34 27 16 2 357 357 351 359 44 58 39 31 40 23 38 44 30 23 34 43 49 31 25 14 66 73 112 190 208 173 161 162 174 187 176 175 170 198 169 219 194 120 120 94 91 78 59 37 20 10 356
164 163 61 71 200 233 300 321 16 113 98 102 103 103 65 24 26 75 90 89 94 117 107 105 104 102 100 77 64 47 36 53 68 66 55 46 45 41 29 22 15 6 355 347 354 10 16 21 26 32 27 22 15 23 16 25 30 47 39 30 19 3 15 26 36 19 131 142 131 132 141 145 149 164 179 138 132 140 116 120 124 130 133 125 145 162 173
71 72 90 142 241 263 302 301 351 70 125 95 75 63 18 27 20 12 87 109 121 138 135 127 132 117 117 85 61 49 38 44 53 62 54 47 46 44 28 34 18 3 7 2 348 340 355 10 14 15 14 16 29 16 25 24 10 24 41 40 23 17 16 359 17 65 90 151 137 131 138 136 135 141 150 158 146 141 111 107 109 117 100 101 105 87 58
153 164 111 209 1 358 133 15 30 39 60 18 100 136 40 354 332 50 116 81 49 57 323 296 296 339 43 60 33 26 34 24 31 53 50 55 49 51 11 17 21 290 333 29 357 1 20 22 15 358 350 7 4 15 17 3 20 24 24 23 16 6 11 8 360 350 4 135 146 147 147 136 138 144 142 134 119 106 95 92 106 97 107 87 90 111 110
119 127 77 17 26 239 244 228 269 263 241 218 177 105 32 333 337 281 135 96 38 17 349 351 329 36 57 35 345 336 352 14 20 16 34 21 19 15 351 344 357 7 6 8 13 30 26 29 14 352 348 360 13 7 63 318 34 31 25 21 14 345 334 348 356 1 347 343 144 87 122 161 171 173 161 145 158 159 140 143 143 155 136 113 96 121 126
81 70 133 191 167 243 207 227 279 293 274 176 145 69 192 260 287 355 104 105 58 71 81 345 67 71 77 119 269 289 326 345 7 12 360 1 3 351 354 354 351 345 349 347 360 20 28 21 354 355 359 352 357 336 3 3 352 357 325 264 224 248 279 311 359 0 19 40 339 176 212 250 221 163 170 178 169 145 144 141 150 151 141 118 97 50 54
136 143 117 203 194 133 232 248 278 290 310 162 68 101 261 233 344 13 83 101 98 41 28 63 69 108 138 207 249 270 313 317 316 5 349 348 351 349 346 348 349 325 335 7 15 21 19 347 329 350 7 17 16 359 343 359 8 347 313 307 322 316 300 319 310 281 220 190 188 186 213 210 186 189 178 117 122 126 101 109 124 118 120 125 122 102 44
67 90 169 19 325 282 260 299 302 319 182 111 126 202 223 224 27 29 104 96 115 35 43 71 83 347 180 188 246 322 337 354 347 348 345 330 329 333 344 340 352 352 346 356 343 318 314 314 319 332 30 35 14 356 346 4 349 314 304 311 309 304 295 282 276 268 271 229 198 209 208 197 168 155 164 145 131 122 120 108 105 97 89 87 97 78 39
72 157 110 181 209 238 8 286 308 291 92 167 215 234 216 135 86 36 75 79 12 25 34 35 97 313 349 345 356 355 347 339 306 323 337 344 350 351 350 346 349 348 338 335 335 332 310 301 297 313 18 49 16 358 9 0 322 300 314 312 313 319 316 298 287 277 259 260 268 267 212 144 140 176 179 144 145 135 136 133 126 120 115 115 107 88 38
55 44 74 57 155 280 8 293 337 14 111 227 175 149 46 150 105 67 27 118 15 121 28 337 317 313 330 331 308 313 316 334 339 336 341 346 342 336 339 341 336 339 329 316 308 297 296 306 306 308 335 349 323 344 344 296 307 321 315 317 325 327 333 333 317 292 286 286 277 250 247 253 195 193 195 167 158 150 143 142 144 154 155 148 132 97 61
143 79 109 191 211 270 311 115 143 293 89 128 108 91 56 25 34 16 354 350 314 249 26 348 333 274 272 320 342 331 322 331 321 313 302 309 317 323 320 316 315 331 318 302 296 293 294 298 310 325 8 328 308 312 299 310 334 334 338 337 338 353 354 348 341 341 330 311 291 282 244 186 288 241 181 176 160 162 159 153 158 158 175 155 137 148 110
109 183 159 182 218 297 344 50 87 87 74 101 147 105 139 123 282 181 73 302 343 356 339 338 335 320 336 311 293 330 309 318 323 328 326 319 319 315 316 312 315 324 318 310 309 308 303 304 306 312 318 309 301 300 282 336 338 339 335 344 359 358 354 348 350 337 333 330 330 325 303 240 207 226 219 181 156 181 157 161 161 166 179 178 165 135 116
92 51 69 110 205 6 48 42 76 126 131 190 148 153 160 221 72 138 141 350 313 352 32 10 334 341 327 342 336 339 338 333 317 314 313 311 306 307 310 315 325 321 318 312 310 308 309 311 312 312 308 235 277 273 293 312 307 314 330 345 343 336 330 339 341 346 345 336 340 341 341 2 240 244 206 204 198 172 181 173 173 169 170 165 155 147 140
61 207 186 140 169 106 126 121 45 23 63 79 104 97 79 108 123 94 31 92 35 29 40 24 316 303 329 337 327 334 332 334 330 328 321 314 313 313 314 301 309 318 327 317 313 310 304 301 316 323 325 306 271 300 313 315 316 301 308 318 315 315 315 317 320 333 337 330 329 330 342 339 325 296 251 216 193 183 192 174 177 174 159 163 160 155 155
104 212 179 208 313 297 316 130 124 114 64 57 43 84 121 121 79 76 26 58 52 35 33 349 332 301 325 349 322 322 317 313 316 315 313 312 318 314 306 303 300 300 296 290 292 296 296 299 313 313 315 316 314 315 312 317 320 322 308 303 300 299 301 304 302 303 307 309 313 310 316 320 314 310 298 235 199 197 191 190 175 185 171 170 175 173 175
16 31 45 60 44 349 319 325 274 208 182 133 105 75 97 105 91 80 77 81 122 108 98 99 63 359 321 316 309 312 309 312 310 308 305 303 300 307 313 309 310 304 301 291 275 267 274 285 301 308 309 308 311 313 313 316 325 326 312 307 301 293 290 291 288 290 283 282 284 296 301 303 257 241 256 234 228 251 238 203 191 176 182 192 190 188 167
139 177 201 147 127 267 253 259 246 254 205 136 109 67 58 42 52 49 68 24 18 77 117 40 1 324 312 314 317 308 300 297 297 298 298 297 300 301 298 300 303 302 292 283 277 268 265 268 276 284 290 290 293 291 291 292 297 299 297 300 298 289 283 278 276 280 279 277 276 280 286 291 307 304 238 242 243 231 277 279 248 240 186 192 197 175 175
202 242 200 174 145 173 222 194 205 202 150 123 127 119 105 57 65 120 90 39 347 346 325 326 324 310 307 301 304 296 293 288 283 284 288 294 298 297 301 303 301 297 291 284 278 278 279 273 272 273 274 275 275 273 266 265 264 263 265 270 269 271 275 272 268 265 263 269 263 259 258 263 271 274 297 263 227 235 238 255 259 252 234 224 173 190 182
251 210 190 173 138 165 184 228 216 149 138 119 112 89 123 143 155 163 153 181 198 277 292 302 274 273 284 281 285 288 290 288 292 291 287 284 285 292 296 293 298 301 297 287 281 288 296 291 286 281 279 275 272 271 264 259 251 254 254 252 257 258 256 259 263 260 257 254 251 244 250 245 245 252 251 268 275 251 37 36 26 205 216 211 195 189 200
230 190 164 178 163 155 221 145 120 94 136 132 136 167 162 175 213 185 180 231 232 212 260 284 293 268 268 283 278 281 290 292 287 291 297 294 293 292 293 292 289 290 291 288 283 285 286 285 285 284 280 276 273 274 276 268 255 251 249 245 250 254 251 253 253 256 257 254 249 239 240 234 234 225 230 236 249 265 331 38 56 51 52 150 174 179 171
191 104 95 108 88 84 90 69 35 70 129 143 115 179 200 186 191 188 213 198 224 219 229 272 297 300 283 289 292 287 289 288 292 297 297 304 303 294 287 286 287 283 280 280 282 283 283 282 281 282 279 278 278 276 273 265 255 248 244 240 240 247 249 244 245 246 244 246 247 247 238 233 227 220 221 214 219 225 231 261 353 34 41 43 93 154 164
75 127 101 59 55 64 164 153 190 190 166 172 166 187 196 203 191 192 233 223 231 233 276 286 283 290 303 293 291 294 295 300 303 309 309 298 291 289 290 292 291 289 286 284 281 278 278 279 278 277 277 280 279 277 272 267 262 257 252 245 242 237 235 238 245 247 240 236 238 240 241 234 230 223 225 222 216 206 202 205 198 162 47 17 25 59 145
150 186 135 160 221 218 217 209 160 158 170 178 176 174 195 133 79 45 346 340 349 345 336 318 311 319 318 311 306 314 315 313 314 306 299 297 299 301 300 298 297 299 297 288 284 282 282 286 288 290 288 290 289 281 278 276 271 269 266 261 255 248 239 226 226 231 235 235 227 225 230 235 226 221 217 210 206 211 199 173 153 139 113 51 48 48 87
214 209 195 154 174 163 122 116 120 150 187 183 147 153 141 91 352 357 324 308 298 323 325 323 314 299 302 306 318 314 309 305 303 309 310 308 310 311 311 308 307 306 297 300 307 318 318 310 304 297 291 290 293 293 289 282 275 269 265 264 258 252 243 236 227 220 223 223 220 217 218 220 215 216 212 207 205 184 165 156 147 143 129 131 111 84 70
293 30 81 95 118 126 122 138 166 181 189 182 134 69 26 84 11 323 307 305 322 321 294 294 316 324 305 315 332 331 329 320 313 312 314 316 316 316 312 310 310 300 306 315 321 318 310 309 308 303 303 310 306 299 291 285 279 273 270 267 261 254 249 241 230 224 217 215 208 200 206 208 208 199 192 186 182 174 161 155 155 147 143 143 131 131 134
73 66 69 92 112 132 146 174 183 211 179 114 146 122 352 68 118 295 292 290 304 293 301 313 306 298 320 339 339 329 323 314 310 310 313 314 311 312 311 313 323 326 328 320 319 319 319 320 312 308 312 312 308 303 305 304 301 296 288 281 273 268 263 252 237 221 209 200 191 191 197 194 189 179 178 173 168 164 159 154 148 140 138 137 136 133 128
87 58 55 63 139 165 177 185 182 196 189 191 132 238 222 213 257 255 275 296 277 272 298 313 308 311 321 333 335 328 326 325 318 315 317 323 329 331 324 319 313 309 307 314 319 323 321 316 322 323 318 315 313 319 325 326 326 324 322 319 306 309 295 285 209 197 177 179 174 178 177 174 183 178 171 171 172 168 160 152 147 146 146 143 138 118 103
110 83 328 274 74 164 196 216 191 217 202 208 222 228 239 225 224 245 259 265 298 305 301 295 296 300 313 330 333 327 328 331 323 325 340 345 342 340 340 333 320 310 305 319 321 316 323 329 324 319 323 321 324 333 344 344 341 336 341 334 336 333 8 22 63 113 129 137 152 161 172 177 174 173 173 163 152 147 142 133 133 133 132 124 116 127 126
169 186 196 194 175 182 198 224 219 207 230 242 242 248 255 246 236 251 267 275 279 286 281 283 292 299 294 306 319 327 331 341 348 345 342 342 343 344 340 335 321 309 296 306 331 351 351 337 330 330 325 329 339 349 352 349 352 355 352 358 357 3 32 40 41 56 63 62 69 82 93 106 118 128 118 115 114 121 121 122 124 124 120 114 111 98 108
176 206 196 198 196 195 187 183 186 198 201 226 259 254 243 246 242 248 253 266 269 260 278 295 296 299 300 303 324 336 346 345 340 337 338 342 342 338 332 331 330 329 332 358 8 357 345 335 337 334 334 341 350 0 360 352 355 2 0 8 19 27 36 45 50 55 66 72 76 77 82 83 89 88 94 98 104 109 108 109 113 116 114 112 108 103 101
174 207 222 209 196 174 175 187 187 186 188 206 222 230 242 244 248 257 259 252 256 278 283 280 286 307 323 337 333 335 342 334 332 332 333 337 334 332 337 354 356 2 359 354 7 354 340 337 339 343 345 351 358 4 5 359 355 6 18 17 23 34 46 52 56 59 53 63 68 73 77 82 84 83 89 93 95 99 101 101 99 97 95 94 98 101 104
196 198 195 176 169 169 180 184 184 182 201 214 228 240 255 260 248 253 255 271 273 272 281 296 357 326 289 283 253 303 311 313 323 329 324 329 330 344 356 7 16 10 357 9 342 339 333 338 339 348 357 5 2 3 1 4 9 11 21 28 33 31 40 53 54 60 58 60 67 74 76 77 74 72 74 82 88 90 90 90 87 86 87 92 95 99 95
205 188 182 175 173 179 209 210 188 181 195 257 255 232 239 256 261 257 267 271 277 277 268 260 234 218 194 120 51 14 335 330 343 336 333 332 336 358 17 27 14 357 5 342 317 327 330 337 344 360 9 10 1 359 1 8 16 22 32 27 31 38 43 44 49 55 59 59 57 63 66 69 74 72 70 70 77 80 84 82 82 89 92 92 92 91 95
158 150 144 139 143 196 208 155 136 174 186 219 252 270 257 243 259 266 268 269 268 268 281 111 130 125 85 69 20 353 351 344 344 339 332 333 326 4 43 28 358 328 285 296 314 320 335 347 359 8 16 8 3 3 7 12 23 31 26 30 32 37 40 51 55 55 51 57 60 61 62 60 63 64 63 60 62 68 68 78 88 90 85 83 81 89 87
187 183 195 167 190 213 205 223 216 227 228 217 226 257 270 277 258 236 260 289 286 280 168 150 152 151 121 90 64 4 340 348 346 341 336 323 330 333 340 22 6 343 328 324 326 338 354 3 13 20 16 9 11 9 13 21 31 37 33 33 33 35 36 39 46 55 55 60 64 62 63 63 63 64 64 63 63 65 69 75 77 81 84 88 90 92 93
201 199 195 180 208 190 198 208 237 241 234 235 229 243 250 250 247 227 248 246 271 276 177 164 150 158 162 156 150 181 18 7 6 357 346 341 352 5 27 15 342 338 338 335 337 345 7 19 18 17 10 10 18 20 25 30 36 38 39 39 41 44 46 43 44 44 47 52 58 64 70 70 71 68 67 68 67 72 69 71 73 75 82 88 89 92 93
213 195 189 200 216 214 216 215 222 290 273 245 247 248 258 235 205 217 226 211 208 181 169 180 171 165 164 158 147 109 54 29 16 2 9 28 5 348 11 346 335 332 333 338 347 359 8 15 13 14 5 11 24 31 42 46 42 42 44 41 42 44 49 51 53 52 53 55 60 67 65 66 71 76 72 73 73 75 78 77 75 76 77 80 84 88 93
192 189 201 209 216 220 219 210 205 226 256 278 264 258 260 245 216 219 179 175 162 160 142 135 129 131 144 150 135 113 50 354 6 350 351 350 327 225 326 278 313 327 342 3 10 14 13 9 10 7 16 26 34 36 45 45 45 47 48 47 47 48 49 50 53 54 53 58 60 60 64 67 68 69 68 66 67 67 69 71 73 74 75 77 79 79 78
196 195 199 204 219 222 211 215 230 233 255 272 263 247 252 245 211 200 196 180 172 183 167 165 165 172 174 168 149 183 248 259 309 348 34 344 337 5 43 345 327 333 2 19 17 19 12 10 8 19 31 40 43 46 48 44 45 46 47 48 49 48 51 53 52 54 59 62 63 65 66 67 68 67 69 70 69 69 67 69 72 73 74 75 76 78 79
207 204 206 208 210 202 213 216 215 223 226 244 290 287 240 244 236 207 189 182 181 191 190 183 181 185 185 183 189 200 205 198 190 163 88 17 32 333 341 359 350 358 14 26 27 24 15 12 19 35 44 45 50 52 53 49 51 52 53 54 52 53 53 54 55 57 60 64 65 66 68 72 75 76 77 76 76 71 69 68 67 69 71 71 72 75 74
221 224 217 204 209 215 216 212 220 209 236 271 288 287 239 226 233 217 192 195 190 191 194 195 188 193 186 186 186 176 189 238 236 208 203 179 153 265 318 360 356 11 33 39 28 20 14 21 35 43 46 48 50 53 51 52 55 57 57 56 56 57 57 55 57 59 58 62 63 64 70 74 73 74 76 80 82 83 82 79 75 70 71 72 74 74 74
217 218 211 215 228 229 217 199 177 186 210 226 247 262 251 213 219 219 213 206 209 201 185 191 198 196 179 169 162 153 162 176 263 244 220 216 193 77 41 33 31 37 50 48 32 18 15 27 36 42 50 51 55 55 52 56 57 60 59 61 58 60 56 56 55 55 54 56 58 62 61 61 66 75 75 74 73 75 76 78 79 77 74 78 81 82 83
205 214 220 215 225 227 176 156 165 197 206 215 218 231 233 200 205 217 209 187 208 203 181 187 191 186 180 189 204 193 170 153 152 263 233 172 137 102 75 69 50 50 53 49 40 22 29 42 45 47 50 52 54 53 54 56 59 59 62 61 62 59 59 57 52 52 52 52 54 55 54 56 57 64 66 69 73 72 72 74 75 73 68 63 64 61 64
208 216 222 219 226 207 183 197 200 217 226 223 216 234 217 189 192 198 201 191 187 193 200 203 199 198 197 197 192 203 194 174 135 208 222 170 166 133 114 89 66 58 63 69 53 30 30 42 46 47 51 53 56 55 59 58 62 64 65 68 67 64 66 65 63 63 65 62 59 61 59 62 56 58 64 65 65 62 61 61 62 63 65 66 67 66 66
217 208 218 215 214 211 205 200 213 224 228 210 216 223 184 149 169 214 206 195 197 194 198 208 210 207 200 198 199 200 194 201 206 221 191 164 147 140 137 118 103 98 98 90 71 39 25 41 44 45 49 53 57 60 61 63 62 64 69 69 71 70 71 75 71 68 68 68 59 62 65 68 67 68 67 65 61 59 61 62 59 67 70 69 67 65 63
200 201 220 218 216 219 210 203 214 215 213 211 215 186 161 181 205 207 194 192 174 179 210 221 226 217 207 209 206 201 195 198 196 166 160 155 147 147 142 132 129 127 106 94 81 53 37 54 53 52 54 57 58 58 59 66 66 65 66 70 72 79 77 74 78 77 72 76 79 74 71 69 73 69 63 67 67 64 60 60 54 51 56 60 62 60 57
212 216 226 225 226 227 223 229 241 238 222 206 185 170 187 200 204 208 211 194 186 195 197 189 229 232 198 199 197 202 193 181 167 166 165 154 151 153 145 134 134 132 126 121 106 74 58 67 73 72 71 67 63 64 65 67 69 68 65 67 72 71 75 84 87 88 77 75 84 83 73 65 68 76 73 70 70 72 68 64 61 57 59 54 53 57 56